Location: Anna District 4 Election Precinct
(37.4833°N, 89.2195°W)
Time: 23:24:53
(UTC+00:00)

NOAA 12 - Pass Details

Date: 12 March 2021
Orbit: 795 x 815 km, 98.5° (Epoch: 12 April)

Event Time Altitude Azimuth Distance (km) Brightness Sun altitude
Rises 00:21:48 0° 199° (SSW) 3,315 7.6 -5.0°
Reaches altitude 10° 00:24:34 10° 213° (SSW) 2,392 7.0 -5.6°
Maximum altitude 00:28:45 24° 265° (W) 1,641 6.9 -6.4°
Drops below altitude 10° 00:32:59 10° 318° (NW) 2,410 7.3 -7.2°
Sets 00:35:49 0° 332° (NNW) 3,347 7.7 -7.8°
